"datetime","# probes","# resolvers","can_ipv6","can_ipv6_prbs","can_tcp","can_tcp_prbs","can_tcp6","can_tcp6_prbs","does_ecs","does_ecs_prbs","does_flagday","does_flagday_prbs","does_rov4","does_rov4_prbs","does_rov6","does_rov6_prbs","does_qnamemin","doesnt_qnamemin","does_qnamemin_prbs","doesnt_qnamemin_prbs","does_nxdomain","doesnt_nxdomain","does_nxdomain_prbs","doesnt_nxdomain_prbs","has_ta_19036","hasnt_ta_19036","has_ta_19036_prbs","hasnt_ta_19036_prbs","has_ta_20326","hasnt_ta_20326","has_ta_20326_prbs","hasnt_ta_20326_prbs","can_rsamd5","cannot_rsamd5","broken_rsamd5","can_rsamd5_prbs","cannot_rsamd5_prbs","broken_rsamd5_prbs","can_dsa","cannot_dsa","broken_dsa","can_dsa_prbs","cannot_dsa_prbs","broken_dsa_prbs","can_rsasha1","cannot_rsasha1","broken_rsasha1","can_rsasha1_prbs","cannot_rsasha1_prbs","broken_rsasha1_prbs","can_dsansec3","cannot_dsansec3","broken_dsansec3","can_dsansec3_prbs","cannot_dsansec3_prbs","broken_dsansec3_prbs","can_rsansec3","cannot_rsansec3","broken_rsansec3","can_rsansec3_prbs","cannot_rsansec3_prbs","broken_rsansec3_prbs","can_rsasha256","cannot_rsasha256","broken_rsasha256","can_rsasha256_prbs","cannot_rsasha256_prbs","broken_rsasha256_prbs","can_rsasha512","cannot_rsasha512","broken_rsasha512","can_rsasha512_prbs","cannot_rsasha512_prbs","broken_rsasha512_prbs","can_eccgost","cannot_eccgost","broken_eccgost","can_eccgost_prbs","cannot_eccgost_prbs","broken_eccgost_prbs","can_ecdsa256","cannot_ecdsa256","broken_ecdsa256","can_ecdsa256_prbs","cannot_ecdsa256_prbs","broken_ecdsa256_prbs","can_ecdsa384","cannot_ecdsa384","broken_ecdsa384","can_ecdsa384_prbs","cannot_ecdsa384_prbs","broken_ecdsa384_prbs","can_ed25519","cannot_ed25519","broken_ed25519","can_ed25519_prbs","cannot_ed25519_prbs","broken_ed25519_prbs","can_ed448","cannot_ed448","broken_ed448","can_ed448_prbs","cannot_ed448_prbs","broken_ed448_prbs","can_gost","cannot_gost","broken_gost","can_gost_prbs","cannot_gost_prbs","broken_gost_prbs","can_sha384","cannot_sha384","broken_sha384","can_sha384_prbs","cannot_sha384_prbs","broken_sha384_prbs","is_internal","is_forwarding","is_external","is_internal_prbs","is_forwarding_prbs","is_external_prbs"
2017-06-20T23:59:58Z,111,177,157,101,175,110,154,98,93,64,0,0,0,0,0,0,2,175,1,110,0,175,0,110,0,0,0,0,0,0,0,0,44,41,92,32,44,59,85,92,0,59,68,0,177,0,0,111,20,0,84,93,0,59,68,0,174,3,0,110,21,0,175,2,0,110,20,0,174,3,0,110,21,0,42,132,3,29,91,2,167,8,2,106,25,1,166,9,2,106,26,1,0,174,3,0,109,2,0,172,5,0,108,3,130,43,4,81,48,3,169,8,0,107,25,0,67,31,79,56,29,49
2017-06-21T23:59:59Z,113,182,161,103,180,112,157,100,94,64,0,0,0,0,0,0,2,180,1,112,0,180,0,112,0,0,0,0,0,0,0,0,46,46,90,33,47,58,87,94,1,59,70,1,182,0,0,113,20,0,89,92,1,61,68,1,181,1,0,112,21,0,180,2,0,112,22,0,181,1,0,112,21,0,43,136,3,29,93,2,173,7,2,108,26,1,173,7,2,108,26,1,0,179,3,0,111,2,0,178,4,0,111,3,131,47,4,81,51,3,174,8,0,109,27,0,71,32,79,57,30,50
2017-06-22T23:59:58Z,113,181,162,104,179,112,158,100,92,61,0,0,0,0,0,0,2,179,1,112,0,179,0,112,0,0,0,0,0,0,0,0,44,48,89,31,48,57,88,92,1,61,68,1,181,0,0,113,20,0,89,92,0,62,67,0,180,1,0,112,21,0,180,1,0,112,21,0,180,1,0,112,21,0,42,135,4,30,92,3,171,8,2,108,27,1,172,7,2,108,26,1,0,178,3,0,111,2,0,178,3,0,111,2,131,46,4,81,51,3,173,8,0,109,27,0,72,30,79,60,28,49
2017-06-23T23:59:59Z,112,180,161,103,176,111,157,99,91,61,0,0,0,0,0,0,2,178,1,111,0,178,0,111,0,0,0,0,0,0,0,0,45,45,90,32,47,58,89,91,0,61,67,0,180,0,0,112,20,0,89,91,0,62,66,0,179,1,0,112,21,0,180,0,0,112,20,0,180,0,0,112,20,0,44,133,3,30,91,2,171,7,2,108,26,1,172,6,2,108,25,1,0,176,4,0,110,3,0,177,3,0,110,2,131,45,4,81,50,3,174,6,0,109,25,0,71,30,79,59,29,49
2017-06-24T23:59:59Z,111,178,160,103,176,110,156,99,89,61,0,0,0,0,0,0,0,178,0,111,0,176,0,110,0,0,0,0,0,0,0,0,44,46,88,31,45,57,86,92,0,59,68,0,178,0,0,111,19,0,90,88,0,62,65,0,175,3,0,110,21,0,176,2,0,110,20,0,176,2,0,110,20,0,44,131,3,30,90,2,168,8,2,106,25,1,168,8,2,106,25,1,0,173,5,0,108,3,1,174,3,1,109,2,129,44,5,81,48,4,169,9,0,107,26,0,69,32,77,57,29,48
2017-06-25T23:59:59Z,114,184,166,106,182,113,160,101,92,62,0,0,0,0,0,0,2,182,1,113,0,182,0,113,0,0,0,0,0,0,0,0,47,46,91,34,46,58,92,91,1,63,67,1,184,0,0,114,19,0,91,93,0,62,68,0,182,2,0,113,20,0,182,2,0,113,20,0,181,3,0,113,21,0,44,135,5,30,92,3,172,10,2,108,26,1,172,10,2,108,26,1,1,178,5,1,111,3,0,179,5,0,111,3,130,48,6,81,50,4,173,11,0,109,27,0,73,34,77,60,29,48
2017-06-26T23:59:59Z,114,182,163,105,179,113,157,100,93,62,0,0,0,0,0,0,2,180,1,113,0,182,0,114,0,0,0,0,0,0,0,0,45,46,91,32,48,58,92,90,0,63,68,0,182,0,0,114,22,0,93,89,0,64,67,0,182,0,0,114,21,0,182,0,0,114,22,0,182,0,0,114,21,0,42,134,6,30,92,4,174,6,2,110,26,1,174,6,2,110,26,1,0,177,5,0,111,3,0,176,6,0,111,4,131,45,6,81,51,4,176,6,0,111,27,0,72,31,79,60,28,49
2017-06-27T23:59:58Z,117,187,167,108,185,116,162,104,96,63,0,0,0,0,0,0,2,185,1,116,0,185,0,116,0,0,0,0,0,0,0,0,49,46,92,36,51,58,92,94,1,65,70,1,187,0,0,117,22,0,95,92,0,66,69,0,186,1,0,117,23,0,185,2,0,116,24,0,186,1,0,116,23,0,45,136,6,32,94,4,181,4,2,114,26,1,181,4,2,114,26,1,0,182,5,0,114,3,0,182,5,0,114,3,134,47,6,83,53,4,181,6,0,114,27,0,76,31,80,63,30,49
2017-06-28T23:59:58Z,117,187,167,108,185,116,163,104,101,69,0,0,0,0,0,0,2,185,1,116,0,185,0,116,0,0,0,0,0,0,0,0,46,47,94,33,50,60,91,95,1,64,71,1,187,0,0,117,22,0,90,95,2,63,71,1,186,1,0,117,23,0,185,2,0,116,23,0,186,1,0,117,23,0,44,137,6,31,95,4,179,6,2,113,27,1,179,6,2,113,27,1,0,181,6,0,114,4,0,182,5,0,114,3,134,47,6,84,53,4,180,7,0,114,28,0,74,32,81,62,32,50
2017-06-29T23:59:59Z,120,191,171,111,189,119,166,107,98,67,0,0,0,0,0,0,2,189,1,119,0,191,0,120,0,0,0,0,0,0,0,0,49,45,97,36,51,63,93,98,0,64,75,0,191,0,0,120,23,0,94,97,0,65,74,0,191,0,0,120,22,0,189,2,0,119,23,1,191,0,0,120,22,0,44,141,6,31,99,4,179,10,2,114,31,1,180,9,2,114,30,1,0,184,7,0,116,4,0,185,6,0,117,4,139,46,6,87,53,4,183,8,0,116,29,0,75,33,83,62,32,52
2017-06-30T23:59:58Z,117,184,165,108,182,116,157,103,98,66,0,0,0,0,0,0,2,182,1,116,0,182,0,116,0,0,0,0,0,0,0,0,47,41,96,35,49,62,89,95,0,62,72,0,184,0,0,117,23,0,89,95,0,62,72,0,183,1,0,116,23,0,180,3,1,114,24,2,183,1,0,116,23,0,44,135,5,30,96,3,175,7,2,112,29,1,175,7,2,112,29,1,0,178,6,0,114,4,0,178,6,0,114,4,135,43,6,85,53,4,178,6,0,114,28,0,69,32,83,59,31,52
2017-07-01T23:59:59Z,118,186,167,109,184,117,162,105,99,68,0,0,0,0,0,0,0,186,0,118,0,186,0,118,0,0,0,0,0,0,0,0,47,44,95,35,48,61,93,93,0,64,71,0,186,0,0,118,21,0,91,95,0,63,72,0,183,3,0,116,23,0,180,6,0,114,25,0,183,3,0,116,23,0,42,138,6,30,97,4,174,10,2,111,29,1,174,10,2,111,29,1,0,181,5,0,115,3,0,179,7,0,114,4,135,45,6,85,52,4,177,9,0,113,28,0,70,35,81,60,31,51
2017-07-02T23:59:59Z,117,184,165,108,182,116,160,104,99,69,0,0,0,0,0,0,2,182,1,116,0,184,0,117,0,0,0,0,0,0,0,0,47,42,95,35,48,62,88,96,0,61,73,0,184,0,0,117,22,0,89,94,1,62,72,1,183,1,0,116,23,0,183,1,0,116,23,0,183,1,0,116,23,0,40,137,7,28,97,4,177,5,2,113,27,1,177,5,2,113,27,1,0,179,5,0,114,3,1,177,6,1,114,4,133,45,6,83,53,4,177,7,0,113,28,0,70,33,81,59,32,51
2017-07-03T23:59:59Z,120,191,171,111,189,119,163,106,101,68,0,0,0,0,0,0,2,189,1,119,0,189,0,119,0,0,0,0,0,0,0,0,47,50,94,35,52,61,96,95,0,66,73,0,191,0,0,120,22,0,95,96,0,66,73,0,190,1,0,119,23,0,187,4,0,116,25,0,189,2,0,119,24,0,43,141,7,29,100,4,179,9,3,114,30,2,181,8,2,114,29,1,0,186,5,0,117,3,1,185,5,1,117,3,136,49,6,84,55,4,183,8,0,116,29,0,75,35,81,62,32,51
2017-07-04T23:59:59Z,117,186,166,108,184,116,159,104,94,65,0,0,0,0,0,0,2,184,1,116,0,186,0,117,0,0,0,0,0,0,0,0,48,45,93,36,50,60,95,91,0,65,70,0,186,0,0,117,22,0,96,90,0,66,69,0,186,0,0,117,21,0,181,5,0,114,24,0,186,0,0,117,22,0,45,136,5,30,96,3,178,6,2,113,26,1,178,6,2,113,26,1,0,180,6,0,114,4,0,180,6,0,114,4,133,47,6,82,53,4,180,6,0,114,26,0,73,33,80,61,31,50
2017-07-05T23:59:59Z,118,187,167,109,184,117,160,104,91,62,0,0,0,0,0,0,2,185,1,117,0,187,0,118,0,0,0,0,0,0,0,0,47,49,91,35,52,59,96,91,0,66,70,0,187,0,0,118,21,0,97,90,0,67,69,0,186,1,0,117,22,0,184,3,0,115,24,0,186,1,0,117,22,0,43,137,7,30,96,4,178,7,2,113,27,1,178,7,2,113,27,1,1,181,5,1,115,3,1,181,5,1,115,3,131,50,6,82,54,4,180,7,0,114,27,0,76,33,78,62,32,49
2017-07-06T23:59:58Z,116,186,166,107,183,115,155,103,92,63,0,0,0,0,0,0,2,184,1,115,0,184,0,115,0,0,0,0,0,0,0,0,47,50,89,35,49,58,95,90,1,64,70,1,186,0,0,116,20,0,98,88,0,66,68,0,186,0,0,116,20,0,185,1,0,116,20,0,186,0,0,116,20,0,45,135,6,30,94,4,177,7,2,111,26,1,177,7,2,111,26,1,0,181,5,0,113,3,1,179,6,1,112,4,130,50,6,81,52,4,180,6,0,113,25,0,78,32,76,62,30,48
2017-07-07T23:59:59Z,118,189,169,109,187,117,164,106,90,64,0,0,0,0,0,0,2,187,1,117,0,187,0,117,0,0,0,0,0,0,0,0,51,52,86,37,51,56,100,88,1,68,69,1,189,0,0,118,19,0,100,89,0,67,69,0,186,3,0,116,21,0,186,3,0,116,21,0,186,3,0,116,21,0,47,137,5,32,96,3,176,11,2,112,26,1,176,11,2,112,26,1,2,182,5,2,115,3,1,183,5,1,115,3,129,54,6,81,53,4,178,11,0,113,26,0,80,35,74,64,32,47
2017-07-08T23:59:59Z,114,185,165,105,183,113,160,102,92,62,0,0,0,0,0,0,2,183,1,113,0,185,0,114,0,0,0,0,0,0,0,0,50,47,88,36,48,57,95,90,0,64,69,0,185,0,0,114,20,0,98,87,0,65,67,0,184,1,0,113,20,0,184,1,0,113,20,0,184,1,0,113,20,0,45,135,5,30,93,3,174,9,2,109,25,1,174,9,2,109,25,1,1,179,5,1,111,3,2,178,5,1,111,3,128,50,7,80,51,5,177,8,0,111,25,0,76,33,76,60,31,49
2017-07-09T23:59:59Z,116,187,166,107,184,115,160,103,96,65,0,0,0,0,0,0,3,184,2,115,0,184,0,115,0,0,0,0,0,0,0,0,50,45,92,36,47,60,96,91,0,65,69,0,187,0,0,116,19,0,95,91,1,64,69,1,186,1,0,115,19,0,186,1,0,115,19,0,186,1,0,115,19,0,41,139,7,29,95,5,179,6,2,113,23,1,179,6,2,113,23,1,0,181,6,0,113,4,0,181,6,0,113,4,129,51,6,81,51,4,177,9,0,112,24,0,77,33,77,62,29,48
2017-07-10T23:59:59Z,120,193,173,111,191,119,168,107,94,63,0,0,0,0,0,0,2,191,2,119,0,193,0,120,0,0,0,0,0,0,0,0,49,49,95,36,50,61,96,97,0,66,72,0,193,0,0,120,20,0,98,95,0,66,71,0,191,2,0,119,21,0,191,2,0,119,21,0,191,2,0,119,21,0,43,145,5,30,98,3,180,11,2,114,27,1,180,11,2,114,27,1,0,188,5,0,117,3,0,186,7,0,116,4,132,55,6,83,54,4,180,13,0,114,28,0,79,33,81,64,29,50
2017-07-11T23:59:59Z,119,191,171,110,189,118,166,106,96,64,0,0,0,0,0,0,3,188,2,118,0,191,0,119,0,0,0,0,0,0,0,0,50,48,93,37,49,61,97,94,0,66,70,0,191,0,0,119,19,0,97,94,0,65,70,0,188,3,0,117,21,0,188,3,0,117,21,0,189,2,0,118,20,0,42,143,6,29,97,4,179,10,2,114,25,1,178,11,2,113,26,1,0,185,6,0,116,4,0,183,8,0,115,5,130,54,7,82,53,5,180,11,0,114,26,0,78,34,79,64,31,49
2017-07-12T23:59:59Z,116,186,166,107,184,115,162,104,92,63,0,0,0,0,0,0,3,183,2,115,0,184,0,115,0,0,0,0,0,0,0,0,47,49,90,34,49,60,93,92,1,63,69,1,186,0,0,116,19,0,94,90,2,63,68,2,182,3,1,113,21,1,182,3,1,113,21,1,184,1,1,114,20,1,42,136,8,29,93,6,172,11,3,109,26,2,173,11,2,110,26,1,0,179,7,0,113,5,0,180,6,0,113,4,126,52,8,80,51,6,174,12,0,110,27,0,75,35,76,60,31,48
2017-07-13T23:59:59Z,119,193,172,110,190,118,167,106,93,64,0,0,0,0,0,0,4,189,3,118,0,189,0,117,0,0,0,0,0,0,0,0,50,51,92,36,51,61,99,94,0,67,71,0,193,0,0,119,19,0,101,91,1,68,68,1,189,4,0,117,21,0,188,5,0,116,22,0,188,5,0,116,22,0,45,142,6,31,96,4,180,11,2,113,26,1,182,9,2,114,25,1,0,187,6,0,116,4,1,186,6,1,116,4,130,56,7,82,53,5,183,10,0,115,25,0,79,37,77,62,32,48
2017-07-14T23:59:59Z,117,188,167,108,186,116,162,104,87,61,0,0,0,0,0,0,3,185,2,116,0,186,1,116,0,0,0,0,0,0,0,0,49,49,90,35,50,60,97,91,0,66,70,1,188,0,0,117,19,1,98,90,0,65,69,1,185,3,0,115,21,1,185,3,0,115,21,1,186,2,0,116,20,1,44,138,6,30,95,5,175,11,2,111,26,2,175,11,2,111,26,2,0,182,6,0,114,5,0,182,6,0,114,5,127,53,8,81,52,7,177,11,0,112,26,0,77,35,76,61,31,48
2017-07-15T23:59:59Z,116,186,165,107,184,115,160,103,89,61,0,0,0,0,0,0,3,183,2,115,0,184,0,115,0,0,0,0,0,0,0,0,49,49,88,35,49,59,99,87,0,67,67,0,186,0,0,116,19,0,100,86,0,67,66,0,186,0,0,116,19,0,186,0,0,116,19,0,186,0,0,116,19,0,43,135,8,30,93,5,176,8,2,112,24,1,176,8,2,112,24,1,0,180,6,0,113,4,0,180,6,0,113,4,127,51,8,80,51,6,178,8,0,113,24,0,78,32,76,62,29,48
2017-07-16T23:59:59Z,118,189,168,109,187,117,163,105,89,62,0,0,0,0,0,0,3,186,2,117,0,187,0,117,0,0,0,0,0,0,0,0,50,51,88,36,51,59,98,91,0,67,69,0,189,0,0,118,19,0,101,88,0,68,67,0,187,2,0,117,20,0,187,2,0,117,20,0,187,2,0,117,20,0,44,139,6,31,95,4,178,9,2,113,25,1,178,9,2,113,25,1,0,183,6,0,115,4,0,183,6,0,115,4,127,54,8,81,53,6,179,10,0,114,25,0,80,33,76,64,29,48
2017-07-17T23:59:59Z,120,195,175,112,193,119,169,108,96,66,0,0,0,0,0,0,3,192,2,119,0,193,0,119,0,0,0,0,0,0,0,0,50,50,95,36,52,62,99,96,0,66,72,0,195,0,0,120,20,0,99,95,1,66,71,1,194,1,0,119,21,0,194,1,0,119,21,0,194,1,0,119,21,0,40,149,6,28,100,4,184,9,2,115,26,1,183,10,2,114,27,1,1,186,8,1,116,5,0,189,6,0,117,4,131,55,9,82,54,6,185,10,0,115,27,0,80,32,83,64,30,51
2017-07-18T23:59:59Z,118,193,173,110,190,117,169,107,96,65,0,0,0,0,0,0,3,190,2,117,0,193,0,118,0,0,0,0,0,0,0,0,49,47,97,35,49,63,99,94,0,66,70,0,193,0,0,118,20,0,100,93,0,66,69,0,193,0,0,118,20,0,193,0,0,118,20,0,193,0,0,118,20,0,43,142,8,29,96,5,185,6,2,115,24,1,185,6,2,115,24,1,2,185,6,1,114,4,0,187,6,0,115,4,135,51,7,83,52,5,187,6,0,116,24,0,78,32,83,61,30,51
2017-07-19T23:59:59Z,118,192,172,110,190,117,168,107,96,64,0,0,0,0,0,0,2,190,2,117,0,192,0,118,0,0,0,0,0,0,0,0,48,50,94,34,51,61,98,94,0,66,71,0,192,0,0,118,21,0,98,94,0,65,71,0,192,0,0,118,21,0,191,1,0,117,22,0,191,1,0,117,22,0,44,143,5,29,98,3,183,7,2,114,26,1,181,9,2,113,27,1,0,186,6,0,115,4,1,186,5,1,115,3,134,52,6,83,54,4,186,6,0,116,25,0,76,33,83,60,31,51
2017-07-20T23:59:59Z,119,194,174,111,192,118,170,108,96,65,0,0,0,0,0,0,3,191,2,118,0,192,0,118,0,0,0,0,0,0,0,0,49,49,96,35,50,63,97,95,2,65,71,1,194,0,0,119,20,0,97,95,2,64,71,1,192,2,0,117,22,0,192,2,0,117,22,0,192,2,0,117,22,0,44,144,6,29,98,4,182,10,2,113,27,1,182,10,2,113,27,1,0,188,6,0,116,4,0,188,6,0,116,4,132,52,10,82,53,7,183,11,0,114,27,0,79,32,83,62,30,51
2017-07-21T23:59:59Z,117,193,174,109,191,116,170,106,94,63,0,0,0,0,0,0,3,190,2,116,0,193,0,117,0,0,0,0,0,0,0,0,47,51,95,33,49,62,97,96,0,64,70,0,193,0,0,117,20,0,99,94,0,65,68,0,193,0,0,117,20,0,193,0,0,117,20,0,193,0,0,117,20,0,44,143,6,29,95,4,182,9,2,112,26,1,181,10,2,112,27,1,0,187,6,0,114,4,0,186,7,0,114,5,132,54,7,81,53,5,184,9,0,113,26,0,79,31,83,61,29,51
2017-07-22T23:59:59Z,120,199,180,112,196,118,175,108,100,66,0,0,0,0,0,0,2,197,2,119,0,196,0,118,0,0,0,0,0,0,0,0,48,50,101,34,49,65,98,101,0,64,74,0,199,0,0,120,21,0,98,101,0,64,73,0,194,5,0,117,24,0,194,5,0,117,24,0,194,5,0,117,24,0,41,152,6,27,101,4,183,14,2,113,30,1,184,13,2,113,29,1,1,193,5,1,117,3,0,194,5,0,117,3,136,57,6,83,55,4,185,14,0,114,30,0,77,37,85,59,32,52
2017-07-23T23:59:59Z,115,189,170,107,187,114,166,104,98,65,0,0,0,0,0,0,3,186,3,113,0,187,0,114,0,0,0,0,0,0,0,0,47,48,94,33,47,61,92,95,2,62,70,1,189,0,0,115,20,0,95,93,1,63,69,1,188,1,0,115,21,0,189,0,0,115,20,0,188,1,0,115,21,0,41,143,5,27,96,3,179,8,2,111,25,1,178,9,2,111,26,1,1,183,5,1,112,3,0,184,5,0,112,3,131,52,6,80,52,4,181,8,0,112,25,0,74,32,83,58,28,51
2017-07-24T23:59:59Z,116,189,169,108,186,115,165,105,98,66,0,0,0,0,0,0,2,186,2,115,0,186,0,115,0,0,0,0,0,0,0,0,47,46,96,33,47,62,94,95,0,63,71,0,189,0,0,116,21,0,95,93,0,63,70,0,187,1,0,115,22,0,187,1,0,115,22,0,188,0,0,116,20,0,41,142,5,27,97,3,173,13,2,108,30,1,177,9,2,111,26,1,0,183,5,0,113,3,0,183,5,0,113,3,127,55,6,77,56,4,178,9,1,111,26,1,73,32,83,59,28,51
2017-07-25T23:59:59Z,117,190,172,109,188,116,168,106,100,66,0,0,0,0,0,0,3,187,2,116,0,190,0,117,0,0,0,0,0,0,0,0,46,48,96,32,47,63,94,96,0,62,71,0,190,0,0,117,20,0,95,95,0,63,69,0,188,2,0,116,21,0,188,2,0,115,21,0,187,3,0,114,22,0,42,141,7,28,96,5,180,8,2,112,25,1,180,8,2,112,25,1,0,184,6,0,114,4,0,184,6,0,114,4,132,51,7,81,52,5,182,8,0,114,25,0,74,33,83,59,30,51
2017-07-26T23:59:59Z,116,191,173,108,188,115,169,105,95,63,0,0,0,0,0,0,2,189,2,115,0,191,0,116,0,0,0,0,0,0,0,0,47,48,96,33,48,62,95,96,0,63,70,0,191,0,0,116,21,0,95,96,0,62,70,0,189,2,0,115,22,0,189,2,0,115,22,0,188,3,0,115,23,0,41,145,5,27,97,3,180,9,2,112,27,1,180,9,2,112,27,1,0,186,5,0,113,3,0,186,5,0,113,3,133,52,6,81,53,4,186,5,0,115,25,0,73,33,85,58,29,52
2017-07-27T23:59:59Z,120,195,177,112,192,118,172,108,99,66,0,0,0,0,0,0,2,193,2,119,0,192,0,118,0,0,0,0,0,0,0,0,49,48,98,35,50,63,96,99,0,65,72,0,195,0,0,120,22,0,96,99,0,64,72,0,192,3,0,118,25,0,194,1,0,119,22,0,193,2,0,118,24,0,39,151,5,26,102,3,184,9,2,115,29,1,184,9,2,115,29,1,2,188,5,1,116,3,0,188,7,0,116,4,133,56,6,82,57,4,186,9,0,116,29,0,79,30,86,63,27,53
2017-07-28T23:59:59Z,117,193,175,109,190,116,171,106,99,65,0,0,0,0,0,0,3,190,2,116,0,191,0,116,0,0,0,0,0,0,0,0,52,45,96,37,46,62,98,95,0,65,69,0,193,0,0,117,20,0,100,93,0,65,67,0,193,0,0,117,20,0,193,0,0,117,20,0,193,0,0,117,20,0,40,147,6,27,97,4,185,6,2,114,24,1,184,7,2,114,25,1,0,187,6,0,114,4,0,187,6,0,114,4,132,54,7,80,54,5,185,8,0,114,25,0,77,31,85,60,28,52
2017-07-29T23:59:59Z,117,191,174,110,189,116,170,107,95,63,0,0,0,0,0,0,2,189,2,116,0,191,0,117,0,0,0,0,0,0,0,0,50,48,93,35,49,60,94,97,0,63,70,0,191,0,0,117,22,0,95,94,2,63,68,1,189,2,0,116,22,0,187,4,0,115,24,0,186,4,1,114,23,1,41,147,3,27,98,2,180,9,2,112,27,1,180,9,2,112,27,1,0,187,4,0,115,3,0,187,4,0,115,3,130,56,5,79,56,4,183,8,0,114,26,0,75,33,83,60,30,51
2017-07-30T23:59:59Z,115,189,172,108,185,114,167,105,96,65,0,0,0,0,0,0,2,187,2,114,0,185,0,113,0,0,0,0,0,0,0,0,48,48,93,34,50,61,93,96,0,62,69,0,189,0,0,115,22,0,94,95,0,62,68,0,187,2,0,114,23,0,187,2,0,114,23,0,186,3,0,114,24,0,40,146,3,26,97,2,179,8,2,111,27,1,179,8,2,111,27,1,0,184,5,0,112,3,0,185,4,0,113,3,128,57,4,78,57,3,182,7,0,113,27,0,74,31,84,59,28,52
2017-07-31T23:59:59Z,117,190,173,110,188,116,168,106,99,66,0,0,0,0,0,0,1,189,1,117,0,188,0,116,0,0,0,0,0,0,0,0,50,45,95,36,48,62,93,97,0,62,70,0,190,0,0,117,21,0,94,96,0,62,69,0,187,3,0,115,22,0,187,3,0,115,22,0,187,3,0,115,22,0,38,148,4,26,98,3,180,8,2,113,25,1,180,8,2,113,25,1,0,186,4,0,115,3,1,185,4,1,115,3,131,52,7,81,53,5,181,9,0,113,26,0,72,33,85,58,30,52
2017-08-01T23:59:58Z,116,189,172,109,187,115,168,106,95,63,0,0,0,0,0,0,1,188,1,116,0,189,0,116,0,0,0,0,0,0,0,0,49,45,95,35,46,62,89,100,0,60,71,0,189,0,0,116,19,0,93,96,0,61,69,0,186,3,0,115,21,0,186,3,0,114,21,0,186,3,0,114,21,0,41,144,4,27,96,3,176,11,2,109,27,1,177,10,2,110,26,1,2,183,4,1,113,3,0,185,4,0,114,3,130,54,5,79,54,4,182,7,0,114,24,0,72,33,84,57,31,51
2017-08-02T23:59:59Z,114,186,169,107,184,113,165,104,93,62,0,0,0,0,0,0,0,186,1,114,0,182,1,112,0,0,0,0,0,0,0,0,49,44,93,34,46,60,91,93,2,62,67,2,186,0,0,114,20,1,92,94,0,62,68,0,184,2,0,113,22,0,185,1,0,113,21,0,185,1,0,113,21,0,38,145,3,25,97,3,177,7,2,110,25,2,176,8,2,110,26,1,2,181,3,1,111,2,0,183,3,0,112,2,129,53,4,78,54,3,179,7,0,111,24,1,71,31,84,56,30,51
2017-08-03T23:59:59Z,117,187,170,110,185,116,166,107,95,64,0,0,0,0,0,0,1,186,2,117,0,187,1,117,0,0,0,0,0,0,0,0,48,44,95,34,49,62,94,93,0,64,69,1,187,0,0,117,22,1,94,93,0,63,69,0,185,2,0,115,24,0,184,3,0,114,25,0,184,3,0,114,24,0,38,146,3,25,100,3,177,8,2,111,27,2,177,8,2,111,28,1,0,183,4,0,115,3,0,183,4,0,115,3,130,53,4,79,57,3,181,6,0,114,26,1,72,30,85,59,29,52
2017-08-04T23:59:58Z,117,191,174,110,189,116,170,107,99,66,0,0,0,0,0,0,1,190,1,117,0,189,0,116,0,0,0,0,0,0,0,0,48,48,95,34,47,62,96,95,0,64,68,0,191,0,0,117,19,0,96,95,0,63,68,0,187,4,0,115,21,0,186,5,0,114,22,0,185,6,0,114,23,0,40,146,5,27,97,4,178,11,2,111,27,1,176,13,2,110,28,1,0,187,4,0,115,3,0,185,6,0,114,4,129,57,5,79,55,4,182,9,0,113,25,0,73,35,83,57,32,51
2017-08-05T23:59:59Z,114,183,166,107,181,113,162,104,94,63,0,0,0,0,0,0,1,182,1,114,0,183,0,114,0,0,0,0,0,0,0,0,47,43,93,33,46,61,91,92,0,62,67,0,183,0,0,114,20,0,92,91,0,61,67,0,181,2,0,112,21,0,181,2,0,112,22,0,181,2,0,112,22,0,40,139,4,26,95,3,173,8,2,109,25,1,173,8,2,109,26,1,0,179,4,0,112,3,0,177,6,0,111,4,129,49,5,79,52,4,175,8,0,110,26,0,69,31,83,56,29,51
2017-08-06T23:59:59Z,116,188,172,110,186,115,168,107,95,65,0,0,0,0,0,0,2,186,2,115,0,188,0,116,0,0,0,0,0,0,0,0,47,46,95,33,47,63,96,92,0,64,67,0,188,0,0,116,19,0,95,92,1,63,67,1,187,1,0,116,20,0,186,2,0,116,21,0,186,2,0,115,20,0,41,143,4,27,96,3,176,10,2,111,26,1,179,7,2,112,24,1,0,184,4,0,114,3,2,182,4,1,113,3,132,51,5,81,52,4,184,4,0,115,22,0,72,32,84,57,29,52
2017-08-07T23:59:59Z,117,190,173,110,187,116,169,107,98,66,0,0,0,0,0,0,2,188,2,116,0,186,0,115,0,0,0,0,0,0,0,0,47,45,98,33,46,64,94,96,0,63,69,0,190,0,0,117,19,0,96,94,0,64,68,0,188,2,0,116,20,0,187,3,0,116,21,0,188,2,0,116,20,0,38,148,4,25,99,3,182,6,2,114,23,1,182,6,2,114,23,1,0,184,6,0,114,4,1,185,4,1,115,3,130,55,5,80,54,4,178,12,0,112,28,0,75,31,84,58,30,52
2017-08-08T23:59:58Z,117,190,173,110,188,116,169,107,95,66,0,0,0,0,0,0,2,188,2,116,0,190,0,117,0,0,0,0,0,0,0,0,47,47,96,33,47,63,94,96,0,63,69,0,190,0,0,117,19,0,97,93,0,64,67,0,190,0,0,117,19,0,190,0,0,117,19,0,188,2,0,116,20,0,42,144,4,27,97,3,179,9,2,112,25,1,179,9,2,112,25,1,0,186,4,0,115,3,0,186,4,0,115,3,131,53,6,80,54,5,182,8,0,114,23,0,74,32,84,58,29,52
2017-08-09T23:59:59Z,118,190,173,111,188,117,167,107,96,65,0,0,0,0,0,0,2,188,2,117,0,190,0,118,0,0,0,0,0,0,0,0,47,46,97,33,46,64,91,99,0,62,70,0,190,0,0,118,17,0,91,97,2,61,69,1,182,8,0,113,23,0,182,8,0,112,23,0,185,5,0,114,21,0,38,148,4,25,99,3,174,14,2,109,27,1,174,14,2,109,27,1,0,184,6,0,115,4,0,185,5,0,116,4,131,54,5,80,53,4,179,11,0,112,25,0,73,34,83,58,31,51
2017-08-10T23:59:58Z,117,191,174,110,189,116,168,105,95,64,0,0,0,0,0,0,2,189,2,116,0,191,0,117,0,0,0,0,0,0,0,0,47,49,95,33,46,63,94,97,0,62,70,0,191,0,0,117,17,0,98,93,0,64,67,0,190,1,0,116,18,0,190,1,0,116,18,0,187,4,0,115,20,0,40,147,4,26,97,3,180,9,2,113,23,1,180,9,2,113,23,1,0,187,4,0,115,3,0,187,4,0,115,3,129,57,5,79,54,4,180,11,0,111,25,0,74,33,84,58,30,52
2017-08-11T23:59:58Z,114,185,168,107,183,113,163,103,93,63,0,0,0,0,0,0,2,183,2,113,0,183,0,113,0,0,0,0,0,0,0,0,46,46,93,32,45,62,91,94,0,61,67,0,185,0,0,114,17,0,91,94,0,60,67,0,180,5,0,111,21,0,181,4,0,111,20,0,181,4,0,111,20,0,37,144,4,24,96,3,174,9,2,109,23,1,176,7,2,110,22,1,0,181,4,0,112,3,0,181,4,0,112,3,128,52,5,78,51,4,174,11,0,108,24,0,74,30,81,58,28,50
2017-08-12T23:59:59Z,116,189,172,109,187,115,168,106,97,65,0,0,0,0,0,0,2,187,2,115,0,187,0,115,0,0,0,0,0,0,0,0,48,46,95,34,45,62,95,94,0,64,67,0,189,0,0,116,17,0,95,94,0,62,67,0,189,0,0,116,17,0,188,1,0,115,18,0,188,1,0,115,18,0,37,148,4,24,98,3,177,10,2,110,24,1,176,11,2,110,25,1,0,184,5,0,114,4,0,185,4,0,114,3,128,56,5,78,53,4,176,13,0,109,24,0,75,33,81,59,29,50
2017-08-13T23:59:59Z,115,186,169,108,184,114,166,105,97,65,0,0,0,0,0,0,3,183,3,113,0,184,0,114,0,0,0,0,0,0,0,0,49,44,93,34,44,62,92,94,0,62,67,1,186,0,0,115,17,1,96,90,0,64,64,1,186,0,0,115,17,1,184,2,0,114,19,1,185,1,0,114,18,1,38,143,5,25,96,5,176,8,2,111,23,2,177,7,2,111,22,2,0,180,6,0,112,5,0,182,4,0,113,4,129,52,5,78,52,5,177,9,0,111,23,1,74,31,81,59,29,50
2017-08-14T23:59:59Z,120,192,175,113,190,119,172,110,102,68,0,0,0,0,0,0,2,190,2,119,0,192,0,120,0,0,0,0,0,0,0,0,49,43,100,35,46,67,92,98,2,63,72,2,192,0,0,120,20,1,95,97,0,64,71,1,189,3,0,118,23,1,189,3,0,118,23,1,189,3,0,117,23,1,40,148,4,27,101,4,179,11,2,113,28,2,179,11,2,113,28,2,0,186,6,0,117,5,0,188,4,0,118,4,133,54,5,82,56,5,181,11,0,114,27,1,73,35,84,60,32,53
2017-08-15T23:59:59Z,118,189,172,111,186,117,166,107,100,68,0,0,0,0,0,0,2,187,2,117,0,189,0,118,0,0,0,0,0,0,0,0,48,44,97,34,47,66,93,96,0,64,71,1,189,0,0,118,20,1,93,96,0,63,71,1,188,1,0,117,21,1,187,2,0,116,22,1,187,2,0,116,22,1,40,145,4,27,99,4,178,9,2,112,27,2,178,9,2,112,27,2,1,184,4,1,116,4,0,185,4,0,116,4,133,51,5,83,54,5,178,11,0,112,27,1,74,31,84,61,28,53
2017-08-16T23:59:59Z,118,188,171,111,186,117,166,107,101,68,0,0,0,0,0,0,2,186,2,116,0,188,0,118,0,0,0,0,0,0,0,0,50,40,98,35,46,66,90,98,0,63,71,1,188,0,0,118,22,1,92,96,0,63,71,1,187,1,0,118,23,1,188,0,0,118,22,1,187,1,0,118,23,1,39,145,4,26,99,4,180,6,2,115,26,2,179,7,2,115,27,2,0,184,4,0,115,4,0,184,4,0,115,4,133,50,5,82,55,5,181,7,0,116,26,1,70,34,84,60,30,53
2017-08-17T23:59:59Z,120,192,174,112,188,118,167,107,101,68,0,0,0,0,0,0,2,190,2,118,0,192,0,120,0,0,0,0,0,0,0,0,47,46,99,33,48,67,93,99,0,64,72,1,192,0,0,120,20,1,95,96,1,65,70,2,191,1,0,120,21,1,190,2,0,119,22,1,188,4,0,118,23,1,38,150,4,25,102,4,181,9,2,115,26,2,181,9,2,115,26,2,0,188,4,0,117,4,1,187,4,1,117,4,131,56,5,80,57,5,182,10,0,116,27,1,74,34,84,61,31,53